Погода в Жуазейру-ду-Норти

Бразилия     7°12′50″S   39°19′03″W
темп.,
°C
ветер,
м/с
пор.,
м/с
влажн.,
%
обл.,
%
осадки,
мм/ч
давл.,
гПа
погр.,
м
26 февраля, пт
пт2600:00+21юз129027 0.3 101124
03:00+20зюз119653 0.6 101025
06:00+21зюз1197100 0.4 101040
09:00+24всв238978 2.5 1012539
12:00+26всв238281 5.4 1010766
15:00+27всв227789 9.2 1007885
18:00+23ююв1291100 7.4 100823
21:00+22зюз019499 13.4 101124
27 февраля, сб
сб2700:00+21св2799100 10.4 1011422
03:00+20сз1299100 30.3 1010179
06:00+20з1299100 1.7 1012106
09:00+24всв1384100 1.7 1013588
12:00+26ссв236967 0.1 1011696
15:00+26св127371 1.1 1008627
18:00+22ююв119050 3.3 100823
21:00+21ююз129270 4.8 101023
28 февраля, вс
вс2800:00+21ю019461 3.3 101023
03:00+21юз009680 5.0 100923
06:00+21зсз129791 1.4 101142
09:00+24с128992 7.3 1012376
12:00+25в239035 8.4 1010563
15:00+27вюв137743 13.4 1007821
18:00+22з018925 1.9 100724
21:00+21юз128926 1.9 100823
1 марта, пн
пн100:00+20юв11890 0.0 100923
03:00+21в019334 0.1 100849
06:00+21юв1195100 0.1 100923
09:00+25в237594 0.3 1011738
12:00+28в356086 0.3 10091397
15:00+28в257393 1.6 10051331
18:00+23зсз119020 2.1 100624
21:00+21зюз119339 3.7 100923
2 марта, вт
вт200:00+21вюв2596100 3.9 1010208
03:00+20всв1699100 13.1 1009410
06:00+20юз1198100 5.6 101138
09:00+24вюв358372 5.8 1013756
12:00+26в35822 1.4 1011870
15:00+26в24821 4.0 1008710
18:00+22з009122 2.8 100923
21:00+21ю129125 2.9 101127